Location: Sun City Center
(27.6996°N, 82.3528°W)
Time: 20:36:41
(UTC-04:00)

Cosmos 2084 Rocket - Visible Passes

Search period start: 24 October 2014 00:00
Search period end: 02 November 2014 23:00
Orbit: 549 x 647 km, 62.8° (Epoch: 23 October)

Date Brightness Start Highest point End Pass type
(mag) Time Alt. Az. Time Alt. Az. Time Alt. Az.
24 Oct 6.2 19:43:11 10° WNW 19:46:52 24° WSW 19:50:35 10° SSW visible
25 Oct 7.0 19:55:28 10° W 19:57:07 12° WSW 19:58:47 10° SW visible
28 Oct 6.6 06:55:46 10° SE 06:58:02 15° ESE 07:00:19 10° ENE visible
29 Oct 5.5 07:04:40 10° S 07:08:16 31° ESE 07:11:56 10° NE visible
01 Nov 6.1 05:57:09 10° SSE 06:00:06 19° ESE 06:03:04 10° ENE visible
02 Nov 4.6 05:06:30 10° S 05:10:21 42° ESE 05:14:15 10° NE visible
